RYR6WV EGSS-LEGE

Flight info

Callsign RYR6WV
Flight time 1h 51m
Altitude 33000
Route NUGBO1S NUGBO M183 SILVA Q41 COWLY UT71 VAPID UN859 SOPIL DCT BALAN DCT EVPOK DCT NARAK DCT GAI DCT PPG A27 KANIG KANIG2F
Aircraft B738/M-SDE2E3FGHIRWXY/LB1

Departure

Time 2026-05-04 18:16
Airport London Stansted Airport (EGSS)

Arrival

Time 2026-05-04 20:07
Airport Girona-Costa Brava Airport (LEGE)
Time Latitude Longitude Altitude Speed Heading
2026-05-04 17:50 51.89238 0.25959 358 ft 0 kts 42°
2026-05-04 18:01 51.89231 0.25948 361 ft 4 kts 43°
2026-05-04 18:02 51.89195 0.25923 361 ft 4 kts 333°
2026-05-04 18:02 51.89182 0.25939 359 ft 1 kts 313°
2026-05-04 18:05 51.89183 0.25937 360 ft 1 kts 313°
2026-05-04 18:05 51.89204 0.25901 361 ft 7 kts 313°
2026-05-04 18:05 51.89243 0.25831 357 ft 9 kts 312°
2026-05-04 18:06 51.89340 0.25661 355 ft 12 kts 313°
2026-05-04 18:06 51.89376 0.25573 353 ft 10 kts 297°
2026-05-04 18:06 51.89415 0.25472 355 ft 11 kts 290°
2026-05-04 18:07 51.89383 0.25361 357 ft 12 kts 223°
2026-05-04 18:07 51.89316 0.25260 358 ft 14 kts 223°
2026-05-04 18:07 51.89249 0.25135 353 ft 15 kts 238°
2026-05-04 18:07 51.89183 0.24990 351 ft 17 kts 220°
2026-05-04 18:08 51.89094 0.24856 359 ft 18 kts 223°
2026-05-04 18:08 51.88996 0.24708 351 ft 18 kts 223°
2026-05-04 18:08 51.88900 0.24564 355 ft 20 kts 223°
2026-05-04 18:08 51.88807 0.24428 346 ft 16 kts 224°
2026-05-04 18:09 51.88627 0.24155 346 ft 20 kts 223°
2026-05-04 18:09 51.88410 0.23829 339 ft 19 kts 223°
2026-05-04 18:10 51.88309 0.23679 334 ft 20 kts 222°
2026-05-04 18:10 51.88204 0.23520 336 ft 22 kts 223°
2026-05-04 18:10 51.88091 0.23351 335 ft 22 kts 224°
2026-05-04 18:10 51.87979 0.23184 334 ft 22 kts 222°
2026-05-04 18:11 51.87870 0.23022 336 ft 21 kts 223°
2026-05-04 18:11 51.87765 0.22860 335 ft 21 kts 223°
2026-05-04 18:11 51.87658 0.22702 335 ft 21 kts 223°
2026-05-04 18:11 51.87566 0.22565 328 ft 15 kts 223°
2026-05-04 18:12 51.87519 0.22486 328 ft 9 kts 245°
2026-05-04 18:12 51.87540 0.22390 325 ft 10 kts 313°
2026-05-04 18:12 51.87550 0.22374 327 ft 0 kts 313°
2026-05-04 18:12 51.87555 0.22364 327 ft 3 kts 313°
2026-05-04 18:13 51.87570 0.22339 325 ft 1 kts 313°
2026-05-04 18:13 51.87583 0.22318 323 ft 5 kts 315°
2026-05-04 18:13 51.87702 0.22287 325 ft 11 kts 26°
2026-05-04 18:14 51.87721 0.22311 325 ft 0 kts 41°
2026-05-04 18:15 51.87758 0.22365 329 ft 30 kts 43°
2026-05-04 18:15 51.88101 0.22878 331 ft 104 kts 42°
2026-05-04 18:16 51.88792 0.23910 360 ft 162 kts 41°
2026-05-04 18:16 51.89665 0.25217 971 ft 178 kts 42°
2026-05-04 18:16 51.90577 0.26682 1752 ft 186 kts 45°
2026-05-04 18:17 51.92524 0.29431 3542 ft 183 kts 23°
2026-05-04 18:17 51.93793 0.29960 4113 ft 201 kts
2026-05-04 18:17 51.96574 0.27926 4680 ft 254 kts 303°
2026-05-04 18:18 51.97241 0.25218 5014 ft 269 kts 282°
2026-05-04 18:18 51.97533 0.22250 5032 ft 264 kts 276°
2026-05-04 18:18 51.97760 0.19350 5204 ft 253 kts 277°
2026-05-04 18:18 51.97971 0.16552 5591 ft 248 kts 277°
2026-05-04 18:19 51.98494 0.10863 6637 ft 261 kts 279°
2026-05-04 18:19 51.98799 0.07941 7157 ft 264 kts 279°
2026-05-04 18:19 51.98882 0.04977 7715 ft 265 kts 261°
2026-05-04 18:20 51.98487 0.02039 8315 ft 266 kts 258°
2026-05-04 18:20 51.98091 -0.00905 8917 ft 268 kts 258°
2026-05-04 18:20 51.97703 -0.03883 9531 ft 271 kts 258°
2026-05-04 18:20 51.97315 -0.06895 10051 ft 278 kts 258°
2026-05-04 18:21 51.96899 -0.10106 10234 ft 302 kts 258°
2026-05-04 18:21 51.96454 -0.13525 10406 ft 326 kts 258°
2026-05-04 18:21 51.95973 -0.17205 10896 ft 337 kts 258°
2026-05-04 18:21 51.95480 -0.20979 11482 ft 345 kts 258°
2026-05-04 18:22 51.94980 -0.24792 12296 ft 347 kts 258°
2026-05-04 18:22 51.94470 -0.28676 13071 ft 349 kts 258°
2026-05-04 18:22 51.93966 -0.32508 13767 ft 354 kts 258°
2026-05-04 18:22 51.93449 -0.36426 14465 ft 356 kts 258°
2026-05-04 18:23 51.92925 -0.40393 15015 ft 363 kts 257°
2026-05-04 18:23 51.92395 -0.44389 15757 ft 364 kts 257°
2026-05-04 18:23 51.91862 -0.48395 16478 ft 366 kts 257°
2026-05-04 18:23 51.91318 -0.52468 16974 ft 373 kts 256°
2026-05-04 18:24 51.90759 -0.56644 17058 ft 382 kts 257°
2026-05-04 18:24 51.90199 -0.60821 17102 ft 378 kts 257°
2026-05-04 18:24 51.89641 -0.64978 17120 ft 374 kts 256°
2026-05-04 18:24 51.89087 -0.69089 17125 ft 375 kts 257°
2026-05-04 18:25 51.88527 -0.73225 17134 ft 378 kts 257°
2026-05-04 18:25 51.87962 -0.77394 17137 ft 379 kts 256°
2026-05-04 18:25 51.87395 -0.81565 17133 ft 380 kts 256°
2026-05-04 18:25 51.86825 -0.85751 17131 ft 379 kts 256°
2026-05-04 18:26 51.86257 -0.89902 17129 ft 378 kts 257°
2026-05-04 18:26 51.85627 -0.94023 17112 ft 377 kts 249°
2026-05-04 18:26 51.84303 -0.97624 17139 ft 373 kts 227°
2026-05-04 18:26 51.82300 -1.00262 17128 ft 372 kts 210°
2026-05-04 18:27 51.79914 -1.01852 17116 ft 373 kts 193°
2026-05-04 18:27 51.77358 -1.02581 17162 ft 375 kts 189°
2026-05-04 18:27 51.74747 -1.03202 17579 ft 381 kts 188°
2026-05-04 18:27 51.72137 -1.03818 18387 ft 379 kts 188°
2026-05-04 18:28 51.69518 -1.04460 18941 ft 382 kts 189°
2026-05-04 18:28 51.66916 -1.05123 19473 ft 385 kts 189°
2026-05-04 18:28 51.64261 -1.05809 20064 ft 387 kts 189°
2026-05-04 18:28 51.61594 -1.06440 20623 ft 389 kts 186°
2026-05-04 18:29 51.58866 -1.06519 21169 ft 393 kts 179°
2026-05-04 18:29 51.56129 -1.06326 21728 ft 395 kts 178°
2026-05-04 18:29 51.53376 -1.06112 22253 ft 398 kts 178°
2026-05-04 18:29 51.50603 -1.05910 22782 ft 400 kts 178°
2026-05-04 18:30 51.45002 -1.05561 23798 ft 404 kts 178°
2026-05-04 18:30 51.42219 -1.05403 24225 ft 406 kts 178°
2026-05-04 18:30 51.39390 -1.05245 24647 ft 408 kts 178°
2026-05-04 18:31 51.36540 -1.05086 25065 ft 410 kts 178°
2026-05-04 18:31 51.33680 -1.04929 25465 ft 412 kts 179°
2026-05-04 18:31 51.30799 -1.04778 25896 ft 414 kts 178°
2026-05-04 18:31 51.27925 -1.04594 26328 ft 415 kts 175°
2026-05-04 18:32 51.25074 -1.03837 26723 ft 417 kts 166°
2026-05-04 18:32 51.22314 -1.02407 27103 ft 420 kts 158°
2026-05-04 18:32 51.19641 -1.00469 27486 ft 421 kts 156°
2026-05-04 18:32 51.16980 -0.98488 27847 ft 424 kts 156°
2026-05-04 18:33 51.14306 -0.96501 28202 ft 425 kts 156°
2026-05-04 18:33 51.11625 -0.94525 28702 ft 423 kts 157°
2026-05-04 18:33 51.08946 -0.92569 29141 ft 423 kts 157°
2026-05-04 18:33 51.06275 -0.90631 29617 ft 422 kts 157°
2026-05-04 18:34 51.03606 -0.88704 30135 ft 419 kts 157°
2026-05-04 18:34 51.00959 -0.86796 30561 ft 417 kts 157°
2026-05-04 18:34 50.98339 -0.84911 30886 ft 418 kts 157°
2026-05-04 18:34 50.95681 -0.83001 31205 ft 418 kts 157°
2026-05-04 18:35 50.93030 -0.81097 31563 ft 418 kts 157°
2026-05-04 18:35 50.90396 -0.79206 31953 ft 417 kts 157°
2026-05-04 18:35 50.87746 -0.77309 32313 ft 416 kts 157°
2026-05-04 18:35 50.85117 -0.75361 32634 ft 417 kts 153°
2026-05-04 18:36 50.82631 -0.72997 32956 ft 418 kts 149°
2026-05-04 18:36 50.77712 -0.67906 33002 ft 424 kts 148°
2026-05-04 18:37 50.72806 -0.62817 32983 ft 417 kts 149°
2026-05-04 18:37 50.67933 -0.57837 33005 ft 417 kts 149°
2026-05-04 18:38 50.63079 -0.52922 33008 ft 417 kts 149°
2026-05-04 18:38 50.58181 -0.47981 32998 ft 418 kts 149°
2026-05-04 18:39 50.53275 -0.43043 32997 ft 419 kts 149°
2026-05-04 18:39 50.48363 -0.38111 32997 ft 419 kts 149°
2026-05-04 18:40 50.43448 -0.33188 32997 ft 419 kts 149°
2026-05-04 18:40 50.38542 -0.28285 33003 ft 417 kts 150°
2026-05-04 18:41 50.33647 -0.23406 32992 ft 415 kts 150°
2026-05-04 18:41 50.28776 -0.18563 32988 ft 413 kts 150°
2026-05-04 18:42 50.23938 -0.13764 32984 ft 411 kts 150°
2026-05-04 18:42 50.19145 -0.09021 32993 ft 409 kts 150°
2026-05-04 18:43 50.14338 -0.04274 32984 ft 408 kts 150°
2026-05-04 18:43 50.09427 0.00063 32961 ft 404 kts 160°
2026-05-04 18:44 50.04044 0.02433 32994 ft 404 kts 168°
2026-05-04 18:44 49.98521 0.04533 32995 ft 411 kts 168°
2026-05-04 18:45 49.92970 0.06686 32994 ft 411 kts 168°
2026-05-04 18:45 49.87459 0.08840 32984 ft 410 kts 168°
2026-05-04 18:46 49.81936 0.10997 32982 ft 408 kts 168°
2026-05-04 18:46 49.76445 0.13136 32987 ft 406 kts 168°
2026-05-04 18:47 49.70971 0.15263 32997 ft 404 kts 168°
2026-05-04 18:47 49.66441 0.17032 32990 ft 403 kts 167°
2026-05-04 18:48 49.61024 0.19229 32994 ft 402 kts 167°
2026-05-04 18:48 49.55613 0.21433 32995 ft 401 kts 167°
2026-05-04 18:49 49.50212 0.23619 33000 ft 401 kts 167°
2026-05-04 18:49 49.44818 0.25793 32964 ft 401 kts 167°
2026-05-04 18:50 49.39450 0.27951 32965 ft 400 kts 167°
2026-05-04 18:50 49.34061 0.30113 32968 ft 400 kts 167°
2026-05-04 18:51 49.28673 0.32293 32974 ft 400 kts 167°
2026-05-04 18:51 49.23301 0.34558 32960 ft 401 kts 166°
2026-05-04 18:52 49.17919 0.36834 32959 ft 401 kts 167°
2026-05-04 18:52 49.12542 0.39093 32954 ft 401 kts 167°
2026-05-04 18:53 49.07157 0.41346 32956 ft 401 kts 167°
2026-05-04 18:53 49.01778 0.43590 32950 ft 401 kts 167°
2026-05-04 18:54 48.96437 0.45812 32951 ft 400 kts 168°
2026-05-04 18:54 48.91055 0.48049 32953 ft 401 kts 168°
2026-05-04 18:55 48.85668 0.50282 32949 ft 402 kts 168°
2026-05-04 18:55 48.77564 0.53622 32952 ft 402 kts 168°
2026-05-04 18:56 48.72135 0.55746 32946 ft 403 kts 168°
2026-05-04 18:56 48.66695 0.57856 32948 ft 404 kts 168°
2026-05-04 18:57 48.61256 0.59975 32950 ft 403 kts 168°
2026-05-04 18:57 48.55823 0.62091 32937 ft 403 kts 168°
2026-05-04 18:58 48.50405 0.64209 32938 ft 402 kts 168°
2026-05-04 18:58 48.45043 0.66391 32941 ft 401 kts 168°
2026-05-04 18:59 48.39664 0.68588 32940 ft 399 kts 168°
2026-05-04 18:59 48.34295 0.70766 32929 ft 398 kts 168°
2026-05-04 19:00 48.28950 0.72927 32930 ft 397 kts 168°
2026-05-04 19:00 48.23641 0.75061 32934 ft 396 kts 168°
2026-05-04 19:01 48.18304 0.77165 32928 ft 396 kts 168°
2026-05-04 19:01 48.12974 0.79256 32918 ft 395 kts 168°
2026-05-04 19:02 48.07652 0.81344 32925 ft 395 kts 168°
2026-05-04 19:02 48.02332 0.83429 32921 ft 395 kts 168°
2026-05-04 19:03 47.97002 0.85511 32901 ft 395 kts 168°
2026-05-04 19:03 47.91717 0.87576 32913 ft 395 kts 168°
2026-05-04 19:04 47.86353 0.89287 32928 ft 393 kts 175°
2026-05-04 19:04 47.80923 0.90306 32916 ft 393 kts 175°
2026-05-04 19:05 47.75477 0.91306 32921 ft 394 kts 175°
2026-05-04 19:05 47.70035 0.92350 32928 ft 394 kts 175°
2026-05-04 19:06 47.64596 0.93417 32932 ft 394 kts 175°
2026-05-04 19:06 47.59159 0.94487 32922 ft 394 kts 175°
2026-05-04 19:07 47.53721 0.95557 32926 ft 394 kts 174°
2026-05-04 19:07 47.48285 0.96631 32924 ft 394 kts 173°
2026-05-04 19:08 47.42978 0.98697 32929 ft 395 kts 166°
2026-05-04 19:08 47.37749 1.01057 32925 ft 395 kts 166°
2026-05-04 19:09 47.32494 1.03399 32927 ft 394 kts 166°
2026-05-04 19:09 47.27239 1.05705 32928 ft 393 kts 166°
2026-05-04 19:10 47.21984 1.07992 32926 ft 393 kts 166°
2026-05-04 19:10 47.16738 1.10268 32921 ft 393 kts 166°
2026-05-04 19:11 47.11539 1.12517 32921 ft 392 kts 166°
2026-05-04 19:11 47.06275 1.14790 32922 ft 392 kts 166°
2026-05-04 19:12 46.98454 1.18159 32921 ft 392 kts 166°
2026-05-04 19:13 46.93220 1.20408 32912 ft 392 kts 167°
2026-05-04 19:13 46.87988 1.22651 32885 ft 392 kts 167°
2026-05-04 19:14 46.82751 1.24891 32921 ft 391 kts 167°
2026-05-04 19:14 46.77523 1.27124 32914 ft 392 kts 167°
2026-05-04 19:15 46.72293 1.29353 32907 ft 392 kts 167°
2026-05-04 19:15 46.67053 1.31582 32913 ft 392 kts 167°
2026-05-04 19:16 46.61850 1.33790 32913 ft 392 kts 167°
2026-05-04 19:16 46.56605 1.36012 32917 ft 392 kts 167°
2026-05-04 19:17 46.51356 1.38231 32898 ft 392 kts 167°
2026-05-04 19:17 46.46112 1.40444 32910 ft 392 kts 167°
2026-05-04 19:18 46.40870 1.42651 32911 ft 392 kts 167°
2026-05-04 19:18 46.35629 1.44853 32901 ft 392 kts 167°
2026-05-04 19:19 46.30393 1.47049 32903 ft 391 kts 167°
2026-05-04 19:19 46.25152 1.49243 32904 ft 391 kts 167°
2026-05-04 19:20 46.19927 1.51425 32908 ft 391 kts 167°
2026-05-04 19:20 46.14699 1.53605 32903 ft 391 kts 167°
2026-05-04 19:21 46.09480 1.55777 32913 ft 390 kts 167°
2026-05-04 19:21 46.04281 1.57935 32902 ft 390 kts 167°
2026-05-04 19:22 45.99071 1.60095 32915 ft 390 kts 167°
2026-05-04 19:22 45.93857 1.62251 32919 ft 390 kts 167°
2026-05-04 19:23 45.88632 1.64408 32913 ft 390 kts 167°
2026-05-04 19:23 45.83405 1.66562 32921 ft 391 kts 167°
2026-05-04 19:24 45.78171 1.68714 32909 ft 392 kts 167°
2026-05-04 19:24 45.72963 1.70852 32918 ft 392 kts 167°
2026-05-04 19:25 45.67721 1.72999 32918 ft 392 kts 167°
2026-05-04 19:25 45.62479 1.75142 32920 ft 391 kts 167°
2026-05-04 19:26 45.57246 1.77277 32919 ft 391 kts 167°
2026-05-04 19:26 45.52015 1.79407 32924 ft 390 kts 167°
2026-05-04 19:27 45.46794 1.81529 32917 ft 390 kts 167°
2026-05-04 19:27 45.41575 1.83646 32925 ft 389 kts 167°
2026-05-04 19:28 45.36370 1.85754 32918 ft 389 kts 167°
2026-05-04 19:28 45.31170 1.87855 32925 ft 388 kts 167°
2026-05-04 19:29 45.25979 1.89949 32929 ft 388 kts 167°
2026-05-04 19:29 45.20791 1.92037 32928 ft 387 kts 167°
2026-05-04 19:30 45.15583 1.94129 32919 ft 391 kts 167°
2026-05-04 19:30 45.10304 1.96244 32937 ft 395 kts 167°
2026-05-04 19:31 45.05029 1.98355 32927 ft 397 kts 167°
2026-05-04 19:31 44.99726 2.00475 32939 ft 396 kts 167°
2026-05-04 19:32 44.95312 2.02236 32932 ft 396 kts 167°
2026-05-04 19:32 44.90008 2.04347 32941 ft 395 kts 167°
2026-05-04 19:33 44.84714 2.06450 32938 ft 395 kts 167°
2026-05-04 19:33 44.79418 2.08550 32935 ft 395 kts 167°
2026-05-04 19:34 44.74140 2.10640 32940 ft 394 kts 167°
2026-05-04 19:34 44.68874 2.12720 32935 ft 392 kts 167°
2026-05-04 19:35 44.63625 2.14790 32941 ft 392 kts 167°
2026-05-04 19:35 44.58379 2.16855 32922 ft 391 kts 167°
2026-05-04 19:36 44.53146 2.18911 32940 ft 390 kts 167°
2026-05-04 19:36 44.47938 2.20953 32942 ft 391 kts 167°
2026-05-04 19:37 44.42694 2.23004 32942 ft 391 kts 167°
2026-05-04 19:37 44.37442 2.25056 32939 ft 392 kts 167°
2026-05-04 19:38 44.32183 2.27106 32944 ft 392 kts 167°
2026-05-04 19:38 44.26912 2.29157 32925 ft 393 kts 167°
2026-05-04 19:39 44.21638 2.31207 32934 ft 394 kts 167°
2026-05-04 19:39 44.16342 2.33260 32934 ft 394 kts 167°
2026-05-04 19:40 44.11053 2.35307 32947 ft 395 kts 167°
2026-05-04 19:40 44.05743 2.37358 32941 ft 396 kts 167°
2026-05-04 19:41 44.00524 2.39373 32925 ft 380 kts 167°
2026-05-04 19:41 43.98019 2.40341 32914 ft 366 kts 167°
2026-05-04 19:41 43.95572 2.41284 32939 ft 364 kts 167°
2026-05-04 19:42 43.90813 2.43114 32926 ft 346 kts 167°
2026-05-04 19:42 43.86181 2.44888 32946 ft 347 kts 167°
2026-05-04 19:43 43.81491 2.46680 32945 ft 351 kts 167°
2026-05-04 19:43 43.76756 2.48489 32945 ft 355 kts 167°
2026-05-04 19:44 43.71973 2.50314 32950 ft 358 kts 167°
2026-05-04 19:44 43.67187 2.52138 32944 ft 358 kts 167°
2026-05-04 19:45 43.62391 2.53964 32724 ft 358 kts 167°
2026-05-04 19:45 43.59985 2.54878 32296 ft 357 kts 167°
2026-05-04 19:45 43.57590 2.55788 31933 ft 355 kts 167°
2026-05-04 19:45 43.55209 2.56692 31450 ft 356 kts 167°
2026-05-04 19:46 43.52817 2.57598 30946 ft 357 kts 166°
2026-05-04 19:46 43.50412 2.58508 30465 ft 359 kts 166°
2026-05-04 19:46 43.47995 2.59422 29981 ft 361 kts 166°
2026-05-04 19:46 43.45567 2.60341 29400 ft 362 kts 166°
2026-05-04 19:47 43.43114 2.61268 28863 ft 371 kts 166°
2026-05-04 19:47 43.40549 2.62234 28347 ft 392 kts 166°
2026-05-04 19:47 43.37919 2.63224 27804 ft 399 kts 166°
2026-05-04 19:47 43.35240 2.64235 27274 ft 398 kts 166°
2026-05-04 19:48 43.32575 2.65240 26751 ft 395 kts 166°
2026-05-04 19:48 43.29929 2.66236 26238 ft 393 kts 166°
2026-05-04 19:48 43.27313 2.67221 25721 ft 391 kts 166°
2026-05-04 19:48 43.24685 2.68209 25228 ft 388 kts 167°
2026-05-04 19:49 43.22087 2.69183 24747 ft 386 kts 167°
2026-05-04 19:49 43.19496 2.70154 24270 ft 384 kts 167°
2026-05-04 19:49 43.16920 2.71119 23805 ft 383 kts 167°
2026-05-04 19:49 43.14356 2.72078 23310 ft 381 kts 167°
2026-05-04 19:50 43.11803 2.73032 22767 ft 379 kts 167°
2026-05-04 19:50 43.09258 2.73983 22231 ft 377 kts 167°
2026-05-04 19:50 43.06730 2.74926 21698 ft 377 kts 167°
2026-05-04 19:50 43.04202 2.75868 21171 ft 375 kts 167°
2026-05-04 19:51 43.01691 2.76804 20666 ft 373 kts 167°
2026-05-04 19:51 42.99225 2.77722 20187 ft 371 kts 167°
2026-05-04 19:51 42.96759 2.78640 19978 ft 361 kts 167°
2026-05-04 19:51 42.94379 2.79527 19922 ft 347 kts 167°
2026-05-04 19:52 42.92097 2.80377 19904 ft 333 kts 168°
2026-05-04 19:52 42.89903 2.81192 19915 ft 320 kts 168°
2026-05-04 19:52 42.87785 2.81978 19928 ft 311 kts 168°
2026-05-04 19:52 42.85695 2.82749 19937 ft 313 kts 168°
2026-05-04 19:53 42.83573 2.83531 19953 ft 319 kts 168°
2026-05-04 19:53 42.81418 2.84327 19945 ft 321 kts 168°
2026-05-04 19:53 42.79269 2.85122 19935 ft 318 kts 168°
2026-05-04 19:53 42.77170 2.85899 19930 ft 307 kts 168°
2026-05-04 19:54 42.75151 2.86647 19921 ft 294 kts 168°
2026-05-04 19:54 42.73248 2.87408 19923 ft 283 kts 166°
2026-05-04 19:54 42.71402 2.88208 19921 ft 274 kts 166°
2026-05-04 19:54 42.69581 2.89006 19735 ft 280 kts 166°
2026-05-04 19:55 42.67682 2.89831 19230 ft 290 kts 166°
2026-05-04 19:55 42.65742 2.90672 18761 ft 295 kts 165°
2026-05-04 19:55 42.63767 2.91526 18312 ft 300 kts 165°
2026-05-04 19:55 42.61763 2.92391 17792 ft 304 kts 165°
2026-05-04 19:56 42.59728 2.93268 17270 ft 308 kts 165°
2026-05-04 19:56 42.57670 2.94153 16755 ft 312 kts 165°
2026-05-04 19:56 42.55588 2.95047 16239 ft 315 kts 166°
2026-05-04 19:56 42.53482 2.95950 15738 ft 318 kts 166°
2026-05-04 19:57 42.51360 2.96860 15240 ft 321 kts 165°
2026-05-04 19:57 42.49221 2.97744 14739 ft 321 kts 170°
2026-05-04 19:57 42.47012 2.97887 14276 ft 317 kts 189°
2026-05-04 19:57 42.44882 2.97213 13825 ft 318 kts 197°
2026-05-04 19:58 42.42761 2.96356 13303 ft 320 kts 198°
2026-05-04 19:58 42.40623 2.95480 12774 ft 321 kts 198°
2026-05-04 19:58 42.38487 2.94626 12247 ft 318 kts 198°
2026-05-04 19:58 42.36382 2.93804 11727 ft 311 kts 198°
2026-05-04 19:59 42.34321 2.93006 11222 ft 305 kts 198°
2026-05-04 19:59 42.32297 2.92225 10722 ft 300 kts 198°
2026-05-04 19:59 42.30307 2.91456 10202 ft 296 kts 198°
2026-05-04 19:59 42.28338 2.90697 9657 ft 293 kts 198°
2026-05-04 20:00 42.26386 2.89943 9067 ft 291 kts 198°
2026-05-04 20:00 42.24433 2.89190 8419 ft 291 kts 198°
2026-05-04 20:00 42.22486 2.88442 7788 ft 290 kts 198°
2026-05-04 20:00 42.20568 2.87705 7184 ft 289 kts 198°
2026-05-04 20:01 42.18633 2.86962 6577 ft 289 kts 198°
2026-05-04 20:01 42.16699 2.86219 5911 ft 289 kts 198°
2026-05-04 20:01 42.14763 2.85477 5241 ft 290 kts 198°
2026-05-04 20:01 42.12819 2.84725 4610 ft 289 kts 198°
2026-05-04 20:02 42.10936 2.83976 4352 ft 275 kts 199°
2026-05-04 20:02 42.09139 2.83267 4036 ft 260 kts 198°
2026-05-04 20:02 42.07483 2.82634 3698 ft 236 kts 198°
2026-05-04 20:02 42.05966 2.82061 3405 ft 217 kts 198°
2026-05-04 20:03 42.04578 2.81536 3126 ft 198 kts 198°
2026-05-04 20:03 42.03318 2.81060 2882 ft 178 kts 198°
2026-05-04 20:03 42.02183 2.80631 2690 ft 160 kts 198°
2026-05-04 20:03 42.01144 2.80236 2445 ft 151 kts 198°
2026-05-04 20:04 42.00155 2.79861 2250 ft 146 kts 198°
2026-05-04 20:04 41.99838 2.79740 2191 ft 146 kts 198°
2026-05-04 20:04 41.99527 2.79622 2144 ft 147 kts 198°
2026-05-04 20:04 41.98537 2.79247 1950 ft 148 kts 198°
2026-05-04 20:05 41.97553 2.78875 1741 ft 145 kts 198°
2026-05-04 20:05 41.96584 2.78509 1549 ft 145 kts 197°
2026-05-04 20:05 41.95626 2.78150 1353 ft 144 kts 196°
2026-05-04 20:05 41.94642 2.77780 1153 ft 144 kts 193°
2026-05-04 20:06 41.93679 2.77410 953 ft 149 kts 195°
2026-05-04 20:06 41.92664 2.77025 787 ft 153 kts 194°
2026-05-04 20:06 41.91630 2.76639 570 ft 155 kts 195°
2026-05-04 20:06 41.90629 2.76261 458 ft 133 kts 197°
2026-05-04 20:07 41.89962 2.76007 427 ft 63 kts 196°
2026-05-04 20:07 41.89763 2.75931 423 ft 17 kts 196°
2026-05-04 20:07 41.89646 2.75886 418 ft 18 kts 196°
2026-05-04 20:07 41.89549 2.75867 414 ft 14 kts 158°
2026-05-04 20:08 41.89541 2.75978 409 ft 9 kts 59°
2026-05-04 20:08 41.89561 2.76026 410 ft 3 kts 61°
2026-05-04 20:08 41.89572 2.76054 410 ft 3 kts 61°
2026-05-04 20:08 41.89584 2.76080 409 ft 3 kts 53°
2026-05-04 20:09 41.89609 2.76103 412 ft 6 kts 15°
2026-05-04 20:09 41.89664 2.76122 409 ft 10 kts 16°
2026-05-04 20:09 41.89744 2.76153 419 ft 14 kts 15°
2026-05-04 20:09 41.89847 2.76192 422 ft 17 kts 15°
2026-05-04 20:10 41.89968 2.76238 429 ft 20 kts 16°
2026-05-04 20:10 41.90086 2.76283 431 ft 8 kts 15°
2026-05-04 20:10 41.90149 2.76307 425 ft 7 kts 16°
2026-05-04 20:10 41.90187 2.76360 428 ft 11 kts 103°
2026-05-04 20:11 41.90163 2.76465 419 ft 11 kts 113°
2026-05-04 20:11 41.90089 2.76475 420 ft 10 kts 197°
2026-05-04 20:11 41.90064 2.76466 426 ft 7 kts 195°
2026-05-04 20:11 41.89992 2.76439 415 ft 14 kts 196°
2026-05-04 20:12 41.89913 2.76409 416 ft 2 kts 188°
2026-05-04 20:12 41.89902 2.76441 421 ft 8 kts 90°
2026-05-04 20:12 41.89895 2.76496 416 ft 1 kts 105°
2026-05-04 20:12 41.89894 2.76498 417 ft 0 kts 105°